Location: Limoges
(45.8500°N, 1.2500°E)
Time: 00:56:57
(UTC+01:00)

ISS - Pass Details

Date: 08 December 2020
Orbit: 418 x 419 km, 51.6° (Epoch: 17 January)

Event Time Altitude Azimuth Distance (km) Brightness Sun altitude
Rises 18:12:28 0° 296° (WNW) 2,368 0.7 -10.4°
Reaches altitude 10° 18:14:36 10° 291° (WNW) 1,501 -0.2 -10.8°
Maximum altitude 18:17:53 52° 214° (SW) 529 -2.9 -11.3°
Drops below altitude 10° 18:21:09 10° 137° (SE) 1,492 -1.2 -11.9°
Enters shadow 18:23:04 - 133° (SE) 2,271 -0.3 -12.2°
